GW6547 Weather Reports


Display with metric or nautical units.
time (UTC)temp
F
wind
direction
speed
MPH
gust
MPH
rain 1hr
in
rain 24hr
in
rain mn
in
humidity
%
barometer
mb
20260510225258 83 143 0.0 0.0 0.00 0.00 0.00 33 1014.8
20260510224754 82 158 0.0 0.0 0.00 0.00 0.00 34 1014.7
20260510224250 84 140 1.0 1.0 0.00 0.00 0.00 35 1014.6
20260510223748 85 144 0.0 0.0 0.00 0.00 0.00 32 1014.7
20260510223245 84 148 0.0 0.0 0.00 0.00 0.00 29 1014.7
20260510222742 85 78 2.0 2.0 0.00 0.00 0.00 29 1014.6
20260510222239 85 151 0.0 0.0 0.00 0.00 0.00 30 1014.8
20260510221734 85 154 0.0 0.0 0.00 0.00 0.00 29 1014.9
20260510221231 85 131 2.0 2.0 0.00 0.00 0.00 28 1014.9
20260510220728 85 157 0.0 0.0 0.00 0.00 0.00 25 1014.7
20260510220223 85 153 0.0 0.0 0.00 0.00 0.00 27 1014.6
20260510215720 84 156 1.0 1.0 0.00 0.00 0.00 25 1014.7
20260510215218 85 145 0.0 0.0 0.00 0.00 0.00 24 1014.8
20260510214715 85 151 0.0 1.0 0.00 0.00 0.00 27 1014.6
20260510214212 85 171 0.0 0.0 0.00 0.00 0.00 26 1014.6
20260510213709 84 91 0.0 1.0 0.00 0.00 0.00 29 1014.7
20260510213205 84 152 1.0 1.0 0.00 0.00 0.00 28 1014.7
20260510212701 84 172 1.0 2.0 0.00 0.00 0.00 26 1014.8
20260510212159 84 154 0.0 0.0 0.00 0.00 0.00 26 1014.7
20260510211655 84 141 1.0 1.0 0.00 0.00 0.00 29 1014.5
20260510211150 85 155 2.0 2.0 0.00 0.00 0.00 25 1014.7
20260510210647 85 153 0.0 0.0 0.00 0.00 0.00 28 1014.9
20260510210143 86 99 2.0 2.0 0.00 0.00 0.00 27 1014.6
20260510205642 86 158 0.0 1.0 0.00 0.00 0.00 27 1014.5
20260510205138 85 139 0.0 0.0 0.00 0.00 0.00 30 1014.4
20260510204634 85 155 0.0 0.0 0.00 0.00 0.00 32 1014.5
20260510204131 83 105 0.0 1.0 0.00 0.00 0.00 31 1014.8
20260510203628 84 132 1.0 2.0 0.00 0.00 0.00 31 1014.9
20260510203125 84 156 1.0 1.0 0.00 0.00 0.00 29 1014.7
20260510202625 84 152 1.0 1.0 0.00 0.00 0.00 31 1014.7
20260510202120 85 174 1.0 1.0 0.00 0.00 0.00 32 1014.8
20260510201618 85 158 1.0 1.0 0.00 0.00 0.00 35 1014.8
20260510201114 85 166 0.0 1.0 0.00 0.00 0.00 33 1014.8
20260510200610 84 102 0.0 0.0 0.00 0.00 0.00 33 1014.7
20260510200109 85 151 1.0 1.0 0.00 0.00 0.00 30 1014.9
20260510195606 85 164 1.0 1.0 0.00 0.00 0.00 31 1014.7
20260510195102 85 138 0.0 0.0 0.00 0.00 0.00 34 1015.0
20260510194556 84 162 0.0 0.0 0.00 0.00 0.00 34 1015.0
20260510194054 84 162 1.0 1.0 0.00 0.00 0.00 31 1015.0
20260510193553 84 153 1.0 1.0 0.00 0.00 0.00 33 1015.0
20260510193049 85 170 0.0 0.0 0.00 0.00 0.00 36 1015.0
20260510192549 84 170 0.0 0.0 0.00 0.00 0.00 35 1015.3
20260510192045 84 99 0.0 1.0 0.00 0.00 0.00 33 1015.0
20260510191542 84 140 0.0 0.0 0.00 0.00 0.00 34 1015.0
20260510191038 83 168 0.0 0.0 0.00 0.00 0.00 32 1015.2
20260510190536 83 168 3.0 3.0 0.00 0.00 0.00 32 1015.2
20260510190034 83 201 1.0 1.0 0.00 0.00 0.00 33 1015.1
20260510185530 83 171 0.0 0.0 0.00 0.00 0.00 33 1015.2
20260510185027 83 167 0.0 0.0 0.00 0.00 0.00 31 1015.4
20260510184525 83 173 1.0 1.0 0.00 0.00 0.00 34 1015.2
20260510184020 84 129 1.0 2.0 0.00 0.00 0.00 31 1015.4
20260510183516 83 167 1.0 1.0 0.00 0.00 0.00 32 1015.3
20260510183011 82 185 0.0 0.0 0.00 0.00 0.00 31 1015.3
20260510182509 83 158 1.0 1.0 0.00 0.00 0.00 36 1015.3
20260510182009 82 173 0.0 1.0 0.00 0.00 0.00 34 1015.5
20260510181507 83 166 1.0 1.0 0.00 0.00 0.00 35 1015.5
20260510181003 81 182 1.0 1.0 0.00 0.00 0.00 35 1015.6
20260510180500 82 202 3.0 3.0 0.00 0.00 0.00 35 1015.4
20260510175957 82 137 1.0 1.0 0.00 0.00 0.00 32 1015.5
20260510175453 81 195 2.0 2.0 0.00 0.00 0.00 33 1015.9
20260510174948 82 145 0.0 1.0 0.00 0.00 0.00 34 1015.8
20260510174447 82 171 0.0 1.0 0.00 0.00 0.00 37 1015.8
20260510173943 81 182 1.0 1.0 0.00 0.00 0.00 35 1015.9
20260510173439 81 212 1.0 1.0 0.00 0.00 0.00 34 1015.9
20260510172936 82 123 1.0 2.0 0.00 0.00 0.00 34 1015.8
20260510172431 83 157 0.0 1.0 0.00 0.00 0.00 39 1015.9
20260510171927 82 179 0.0 0.0 0.00 0.00 0.00 34 1016.0
20260510171425 81 163 0.0 0.0 0.00 0.00 0.00 36 1015.9
20260510170922 81 143 2.0 3.0 0.00 0.00 0.00 34 1016.1
20260510170418 82 179 2.0 2.0 0.00 0.00 0.00 34 1016.1
20260510165914 82 91 3.0 5.0 0.00 0.00 0.00 34 1016.2
20260510165410 80 191 0.0 0.0 0.00 0.00 0.00 39 1016.3
20260510164907 81 183 0.0 1.0 0.00 0.00 0.00 38 1016.3
20260510164405 81 177 0.0 0.0 0.00 0.00 0.00 39 1016.2
20260510163905 82 121 1.0 1.0 0.00 0.00 0.00 38 1016.2
20260510163401 81 186 0.0 1.0 0.00 0.00 0.00 36 1016.1
20260510162855 79 168 1.0 1.0 0.00 0.00 0.00 36 1016.4
20260510162353 78 137 1.0 1.0 0.00 0.00 0.00 37 1016.4
20260510161848 79 168 2.0 2.0 0.00 0.00 0.00 37 1016.1
20260510161345 78 197 1.0 1.0 0.00 0.00 0.00 41 1016.4
20260510160842 79 161 4.0 6.0 0.00 0.00 0.00 39 1016.4
20260510160339 79 190 0.0 1.0 0.00 0.00 0.00 40 1016.3
20260510155838 80 197 1.0 1.0 0.00 0.00 0.00 40 1016.4
20260510155335 79 10 2.0 2.0 0.00 0.00 0.00 40 1016.3
20260510154831 79 214 2.0 2.0 0.00 0.00 0.00 41 1016.3
20260510154327 77 66 4.0 5.0 0.00 0.00 0.00 40 1016.1
20260510153822 77 288 3.0 3.0 0.00 0.00 0.00 39 1016.2
20260510153318 77 125 1.0 2.0 0.00 0.00 0.00 39 1016.3
20260510152815 77 29 4.0 5.0 0.00 0.00 0.00 40 1016.3
20260510152312 78 71 4.0 5.0 0.00 0.00 0.00 39 1016.5
20260510151808 78 198 1.0 1.0 0.00 0.00 0.00 44 1016.3
20260510151306 76 181 0.0 1.0 0.00 0.00 0.00 49 1016.3
20260510150801 76 95 4.0 5.0 0.00 0.00 0.00 49 1016.2
20260510150258 76 137 2.0 2.0 0.00 0.00 0.00 48 1016.4
20260510145754 77 82 2.0 2.0 0.00 0.00 0.00 50 1016.3
20260510145251 75 52 4.0 6.0 0.00 0.00 0.00 49 1016.5
20260510144747 76 92 2.0 2.0 0.00 0.00 0.00 50 1016.5
20260510144244 76 174 0.0 1.0 0.00 0.00 0.00 51 1016.5
20260510143743 75 171 1.0 2.0 0.00 0.00 0.00 50 1016.3
20260510143240 77 191 1.0 1.0 0.00 0.00 0.00 53 1016.2
20260510142736 75 155 0.0 1.0 0.00 0.00 0.00 53 1016.4
20260510142234 76 180 1.0 2.0 0.00 0.00 0.00 53 1016.4
20260510141731 76 178 1.0 1.0 0.00 0.00 0.00 56 1016.4
20260510141229 76 183 1.0 1.0 0.00 0.00 0.00 56 1016.2
20260510140726 74 185 1.0 1.0 0.00 0.00 0.00 60 1016.3
20260510140225 74 203 1.0 2.0 0.00 0.00 0.00 59 1016.1
20260510135720 74 35 4.0 5.0 0.00 0.00 0.00 59 1016.3
20260510135216 73 169 0.0 1.0 0.00 0.00 0.00 69 1016.3
20260510134713 73 184 1.0 1.0 0.00 0.00 0.00 67 1016.2
20260510134211 73 117 4.0 6.0 0.00 0.00 0.00 68 1016.5
20260510133706 72 254 2.0 2.0 0.00 0.00 0.00 71 1016.3
20260510133202 72 177 1.0 1.0 0.00 0.00 0.00 74 1016.2
20260510132658 71 89 3.0 5.0 0.00 0.00 0.00 72 1016.5
20260510132156 71 77 4.0 6.0 0.00 0.00 0.00 72 1016.3
20260510131653 72 257 3.0 3.0 0.00 0.00 0.00 73 1016.3
20260510131151 72 185 0.0 1.0 0.00 0.00 0.00 77 1016.1
20260510130647 71 180 0.0 1.0 0.00 0.00 0.00 80 1016.1
20260510130144 70 186 0.0 0.0 0.00 0.00 0.00 83 1016.2
20260510125640 69 182 0.0 0.0 0.00 0.00 0.00 83 1016.0
20260510125137 69 177 0.0 0.0 0.00 0.00 0.00 84 1015.9
20260510124634 68 186 0.0 0.0 0.00 0.00 0.00 88 1016.1
20260510124131 68 184 0.0 0.0 0.00 0.00 0.00 88 1015.9
20260510123626 67 183 0.0 0.0 0.00 0.00 0.00 91 1016.1
20260510123122 66 171 0.0 0.0 0.00 0.00 0.00 94 1015.9
20260510122618 65 180 0.0 0.0 0.00 0.00 0.00 96 1016.0
20260510122114 64 180 0.0 0.0 0.00 0.00 0.00 98 1015.8
20260510121612 63 178 0.0 0.0 0.00 0.00 0.00 99 1015.5
20260510121109 63 178 0.0 0.0 0.00 0.00 0.00 99 1015.5
20260510120607 63 175 0.0 0.0 0.00 0.00 0.00 99 1015.3
20260510115559 62 176 0.0 0.0 0.00 0.00 0.00 99 1015.2
20260510115056 61 175 0.0 0.0 0.00 0.00 0.00 99 1015.0
20260510114552 61 174 0.0 0.0 0.00 0.00 0.00 99 1015.2
20260510114048 60 174 0.0 0.0 0.00 0.00 0.00 99 1015.1
20260510113543 59 173 0.0 0.0 0.00 0.00 0.00 99 1015.0
20260510113041 58 173 0.0 0.0 0.00 0.00 0.00 99 1015.1
20260510112537 58 172 0.0 0.0 0.00 0.00 0.00 99 1014.9
20260510112034 58 172 0.0 0.0 0.00 0.00 0.00 99 1014.9
20260510111531 58 172 0.0 0.0 0.00 0.00 0.00 99 1014.9
20260510111026 58 172 0.0 0.0 0.00 0.00 0.00 99 1014.8
20260510110523 58 179 0.0 0.0 0.00 0.00 0.00 99 1014.7
20260510110019 58 174 0.0 0.0 0.00 0.00 0.00 99 1014.5
20260510105514 58 172 0.0 0.0 0.00 0.00 0.00 99 1014.5
20260510105009 58 172 0.0 0.0 0.00 0.00 0.00 99 1014.6
20260510104506 58 173 0.0 0.0 0.00 0.00 0.00 99 1014.4
20260510104003 58 172 0.0 0.0 0.00 0.00 0.00 99 1014.3
20260510103500 58 170 0.0 0.0 0.00 0.00 0.00 99 1014.6
20260510102955 58 172 0.0 0.0 0.00 0.00 0.00 99 1014.1
20260510102452 58 172 0.0 0.0 0.00 0.00 0.00 99 1014.2
20260510101948 58 171 0.0 0.0 0.00 0.00 0.00 99 1014.3
20260510101446 58 171 0.0 0.0 0.00 0.00 0.00 99 1014.3
20260510100944 58 177 0.0 0.0 0.00 0.00 0.00 99 1014.0
20260510100440 58 171 0.0 0.0 0.00 0.00 0.00 99 1014.0
20260510095937 58 171 0.0 0.0 0.00 0.00 0.00 99 1014.0
20260510095432 58 174 0.0 0.0 0.00 0.00 0.00 99 1014.1
20260510094931 59 175 0.0 0.0 0.00 0.00 0.00 99 1013.9
20260510094426 59 175 0.0 0.0 0.00 0.00 0.00 99 1013.7
20260510093923 59 177 0.0 0.0 0.00 0.00 0.00 99 1013.6
20260510093418 59 175 0.0 0.0 0.00 0.00 0.00 99 1013.7
20260510092915 59 174 0.0 0.0 0.00 0.00 0.00 99 1013.6
20260510092413 59 173 0.0 0.0 0.00 0.00 0.00 99 1013.4
20260510091912 59 172 0.0 0.0 0.00 0.00 0.00 99 1013.4
20260510091410 59 171 0.0 0.0 0.00 0.00 0.00 99 1013.3
20260510090906 59 172 0.0 0.0 0.00 0.00 0.00 99 1013.2
20260510090403 59 172 0.0 0.0 0.00 0.00 0.00 99 1013.2
20260510085859 59 172 0.0 0.0 0.00 0.00 0.00 99 1013.0
20260510085354 60 171 0.0 0.0 0.00 0.00 0.00 99 1013.1
20260510084849 60 171 0.0 0.0 0.00 0.00 0.00 99 1012.9
20260510084347 60 171 0.0 0.0 0.00 0.00 0.00 99 1012.8
20260510083844 60 174 0.0 0.0 0.00 0.00 0.00 99 1013.0
20260510083340 60 171 0.0 0.0 0.00 0.00 0.00 99 1012.8
20260510082836 60 173 0.0 0.0 0.00 0.00 0.00 99 1012.8
20260510082333 60 169 0.0 0.0 0.00 0.00 0.00 99 1012.6
20260510081832 60 175 0.0 0.0 0.00 0.00 0.00 99 1012.6
20260510081328 60 172 0.0 0.0 0.00 0.00 0.00 99 1012.6
20260510080824 60 174 0.0 0.0 0.00 0.00 0.00 99 1012.5
20260510080319 60 176 0.0 0.0 0.00 0.00 0.00 99 1012.4
20260510075817 61 174 0.0 0.0 0.00 0.00 0.00 99 1012.6
20260510075314 61 171 0.0 0.0 0.00 0.00 0.00 99 1012.4
20260510074810 61 173 0.0 0.0 0.00 0.00 0.00 99 1012.5
20260510074308 61 170 0.0 0.0 0.00 0.00 0.00 99 1012.8
20260510073803 61 170 0.0 0.0 0.00 0.00 0.00 99 1012.6
20260510073259 61 173 0.0 0.0 0.00 0.00 0.00 99 1012.5
20260510072755 61 179 0.0 0.0 0.00 0.00 0.00 99 1012.3
20260510072252 61 176 0.0 0.0 0.00 0.00 0.00 99 1012.3
20260510071748 61 171 0.0 0.0 0.00 0.00 0.00 99 1012.2
20260510071245 61 173 0.0 0.0 0.00 0.00 0.00 99 1012.6
20260510070744 61 173 0.0 0.0 0.00 0.00 0.00 99 1012.5
20260510070241 62 175 0.0 0.0 0.00 0.00 0.00 99 1012.4
20260510065740 62 170 0.0 0.0 0.00 0.00 0.00 99 1012.2
20260510065238 61 178 0.0 0.0 0.00 0.00 0.00 99 1012.2
20260510064734 61 173 0.0 0.0 0.00 0.00 0.00 99 1012.5
20260510064232 61 173 0.0 0.0 0.00 0.00 0.00 98 1012.3
20260510063728 61 176 0.0 0.0 0.00 0.00 0.00 98 1012.5
20260510063224 62 177 0.0 0.0 0.00 0.00 0.00 98 1012.4
20260510062721 62 172 0.0 0.0 0.00 0.00 0.00 98 1012.5
20260510062217 62 172 0.0 0.0 0.00 0.00 0.00 98 1012.3
20260510061712 62 172 0.0 0.0 0.00 0.00 0.00 97 1012.4
20260510061210 62 175 0.0 0.0 0.00 0.00 0.00 97 1012.4
20260510060706 62 173 0.0 0.0 0.00 0.00 0.00 97 1012.3
20260510060203 62 177 0.0 0.0 0.00 0.00 0.00 97 1012.5
20260510055659 63 170 0.0 0.0 0.00 0.00 0.00 97 1012.5
20260510055157 63 170 0.0 0.0 0.00 0.00 0.00 96 1012.4
20260510054652 63 173 0.0 0.0 0.00 0.00 0.00 96 1012.5
20260510054149 63 177 0.0 0.0 0.00 0.00 0.00 97 1012.4
20260510053647 62 170 0.0 0.0 0.00 0.00 0.00 97 1012.5
20260510053145 62 171 0.0 0.0 0.00 0.00 0.00 97 1012.8
20260510052640 62 175 0.0 0.0 0.00 0.00 0.00 97 1012.5
20260510052137 62 175 0.0 0.0 0.00 0.00 0.00 97 1012.3
20260510051632 63 173 0.0 0.0 0.00 0.00 0.00 97 1012.3
20260510051129 63 175 0.0 0.0 0.00 0.00 0.00 96 1012.3
20260510050626 63 173 0.0 0.0 0.00 0.00 0.00 96 1012.4
20260510050124 63 172 0.0 0.0 0.00 0.00 0.00 96 1012.6
20260510045621 63 173 0.0 0.0 0.00 0.00 0.00 96 1012.5
20260510045117 63 178 0.0 0.0 0.00 0.00 0.00 95 1012.3
20260510044613 63 174 0.0 0.0 0.00 0.00 0.00 95 1012.3
20260510044111 63 171 0.0 0.0 0.00 0.00 0.00 95 1012.8
20260510043606 63 173 0.0 0.0 0.00 0.00 0.00 95 1012.8
20260510043103 64 169 0.0 0.0 0.00 0.00 0.00 94 1012.6
20260510042601 64 178 0.0 0.0 0.00 0.00 0.00 94 1012.8
20260510042056 64 153 0.0 1.0 0.00 0.00 0.00 94 1012.6
20260510041554 64 171 0.0 0.0 0.00 0.00 0.00 94 1012.6
20260510041051 64 170 0.0 1.0 0.00 0.00 0.00 94 1012.6
20260510040548 63 170 0.0 1.0 0.00 0.00 0.00 94 1012.6
20260510040044 63 171 0.0 1.0 0.00 0.01 0.01 95 1012.9
20260510035540 63 3 1.0 2.0 0.00 0.01 0.01 95 1012.9
20260510035040 63 173 0.0 0.0 0.00 0.01 0.01 94 1012.6
20260510034538 63 171 0.0 0.0 0.00 0.01 0.01 94 1012.8
20260510034035 64 168 0.0 0.0 0.00 0.01 0.01 93 1012.8
20260510033530 64 172 0.0 0.0 0.00 0.01 0.01 93 1012.8
20260510033029 64 171 0.0 0.0 0.00 0.01 0.01 92 1013.2
20260510032525 64 176 0.0 0.0 0.00 0.01 0.01 92 1013.1
20260510032020 64 172 0.0 0.0 0.00 0.01 0.01 92 1012.6
20260510031516 64 165 0.0 0.0 0.00 0.01 0.01 92 1012.6
20260510031012 64 175 0.0 0.0 0.00 0.01 0.01 92 1012.6
20260510030508 64 172 0.0 0.0 0.00 0.01 0.01 91 1012.8
20260510030005 64 175 0.0 0.0 0.00 0.01 0.01 91 1012.9
20260510025502 64 175 0.0 0.0 0.00 0.01 0.01 91 1013.0
20260510025000 64 172 0.0 0.0 0.00 0.01 0.01 91 1012.6
20260510024456 64 177 0.0 0.0 0.00 0.01 0.01 91 1012.6
20260510023952 64 178 1.0 1.0 0.00 0.01 0.01 91 1013.0
20260510023448 64 175 0.0 0.0 0.00 0.01 0.01 91 1012.5
20260510022945 64 175 0.0 0.0 0.00 0.01 0.01 90 1012.5
20260510022444 64 173 0.0 0.0 0.00 0.01 0.01 90 1012.5
20260510021943 65 173 0.0 0.0 0.00 0.01 0.01 90 1012.8
20260510021442 64 173 0.0 0.0 0.00 0.01 0.01 90 1012.5
20260510020939 64 176 0.0 0.0 0.00 0.01 0.01 90 1012.3
20260510020438 64 181 0.0 0.0 0.00 0.01 0.01 90 1012.3
20260510015934 64 174 0.0 0.0 0.00 0.01 0.01 90 1012.6
20260510015431 65 173 0.0 0.0 0.00 0.01 0.01 89 1012.4
20260510014925 65 175 0.0 0.0 0.00 0.01 0.01 89 1012.4
20260510014424 65 177 0.0 1.0 0.00 0.01 0.01 89 1012.1
20260510013920 65 171 0.0 0.0 0.00 0.01 0.01 89 1012.0
20260510013414 66 166 0.0 0.0 0.00 0.01 0.01 88 1012.0
20260510012910 65 165 0.0 0.0 0.00 0.01 0.01 87 1012.0
20260510012406 65 172 0.0 0.0 0.00 0.01 0.01 87 1011.9
20260510011900 65 173 0.0 0.0 0.00 0.01 0.01 87 1011.7
20260510011355 66 176 0.0 0.0 0.00 0.01 0.01 88 1011.7
20260510010852 66 162 0.0 0.0 0.00 0.01 0.01 86 1011.6
20260510010350 66 169 0.0 0.0 0.00 0.01 0.01 86 1011.4
20260510005846 66 178 0.0 0.0 0.00 0.01 0.01 85 1011.5
20260510005342 67 173 0.0 0.0 0.00 0.01 0.01 84 1011.5
20260510004840 67 188 0.0 1.0 0.00 0.01 0.01 83 1011.2
20260510004337 67 171 0.0 1.0 0.00 0.01 0.01 83 1011.7
20260510003835 67 180 0.0 1.0 0.00 0.01 0.01 82 1011.1
20260510003332 67 172 0.0 0.0 0.00 0.01 0.01 82 1011.2
20260510002830 67 170 0.0 0.0 0.00 0.01 0.01 82 1011.0
20260510002328 68 173 0.0 0.0 0.00 0.01 0.01 82 1011.1
20260510001824 68 184 1.0 1.0 0.00 0.01 0.01 81 1010.8
20260510001323 68 175 0.0 0.0 0.00 0.01 0.01 81 1010.8
20260510000818 69 171 0.0 0.0 0.00 0.01 0.01 80 1010.9
20260510000318 69 171 0.0 0.0 0.00 0.01 0.01 80 1010.7
20260509235813 69 167 0.0 0.0 0.00 0.01 0.01 79 1010.6
20260509235309 69 168 0.0 0.0 0.00 0.01 0.01 79 1010.8
20260509234805 69 169 0.0 0.0 0.00 0.01 0.01 79 1010.8
20260509234302 69 171 0.0 0.0 0.00 0.01 0.01 78 1010.8
20260509233800 70 170 0.0 1.0 0.00 0.01 0.01 78 1010.7
20260509233257 70 170 0.0 0.0 0.00 0.01 0.01 78 1010.7
20260509232753 70 171 0.0 0.0 0.00 0.01 0.01 77 1010.6
20260509232251 70 169 0.0 0.0 0.00 0.01 0.01 77 1010.7
20260509231747 70 179 0.0 1.0 0.00 0.01 0.01 76 1010.7
20260509231244 71 170 1.0 1.0 0.00 0.01 0.01 77 1010.6
20260509230742 71 165 1.0 2.0 0.00 0.01 0.01 76 1010.6
20260509230238 71 160 1.0 1.0 0.00 0.01 0.01 75 1010.5
20260509225733 71 178 2.0 2.0 0.00 0.01 0.01 76 1010.4